Location: Cisewo
(53.3833°N, 14.9000°E)
Time: 11:48:36
(UTC+00:00)

Cosmos 1515 Rocket - Pass Details

Date: 18 April 2021
Orbit: 605 x 631 km, 82.5° (Epoch: 14 May)

Event Time Altitude Azimuth Distance (km) Brightness Sun altitude
Exits shadow 23:49:36 59° 289° (WNW) 734 3.8 -24.6°
Drops below altitude 10° 23:53:58 10° 5° (N) 2,021 7.2 -24.4°
Sets 23:56:15 0° 9° (N) 2,930 8.4 -24.3°
